Home > Weather > Memmingen > Past weeks

Flag for Germany Past Weather in Memmingen, Bavaria, Germany — Yesterday and Last 2 Weeks

Now
64 °F

Partly sunny.


Feels Like: 64 °F
Forecast: 59 / 82 °F
Wind: 5 mph from Southwest

Location: Laupheim Airport

Current Time: Jul 29, 2016 at 10:02:12 AM

Latest Report: Jul 29, 2016 at 9:20 AM


Visibility: N/A

Pressure: 30.07 "Hg (28.02 "Hg at 602m altitude)

Humidity: 78%

Dew Point: 57 °F

Location of MemmingenLocation

Past Weather in Memmingen — Graph

°F

Memmingen Temperature Yesterday

Maximum temperature yesterday: 73 °F (at 1:20 PM)
Minimum temperature yesterday: 59 °F (at 3:20 AM)
Average temperature yesterday: 65 °F

High & Low Weather Summary for the Past Weeks

 TemperatureHumidityPressure
High88 °F (Jul 20, 6:20 PM)100% (Jul 24, 12:20 AM)30.36 "Hg (Jul 24, 12:20 AM)
Low46 °F (Jul 15, 5:20 AM)29% (Jul 20, 7:20 PM)29.95 "Hg (Jul 21, 4:20 AM)
Average66 °F74%30.14 "Hg
* Reported Jul 14 8:20 AM — Jul 29 8:20 AM, Memmingen, Weather by CustomWeather, © 2016

Note: Actual official high and low records may vary slightly from our data, if they occured in-between our weather recording intervals... More about our weather records

Advertising

Memmingen Weather History for the Previous 24 Hours

Scroll right to see more
 ConditionsComfort  
Time TempWeatherWind HumidityBarometerVisibility
8:20 AM
Fri, Jul 29
63 °FPartly sunny.5 mph83%30.07 "HgN/A
7:20 AM61 °FBroken clouds.6 mph88%30.07 "HgN/A
6:20 AM61 °FPartly cloudy.3 mph88%30.07 "HgN/A
5:20 AM61 °FPassing clouds.6 mph88%30.07 "HgN/A
4:20 AM61 °FPassing clouds.3 mph88%30.07 "HgN/A
3:20 AM63 °FPartly cloudy.3 mph83%30.07 "HgN/A
2:20 AM63 °FPartly cloudy.3 mph83%30.07 "HgN/A
1:20 AM63 °FPassing clouds.3 mph88%30.07 "HgN/A
12:20 AM63 °FPassing clouds.3 mph88%30.07 "HgN/A
11:20 PM
Thu, Jul 28
63 °FPassing clouds.5 mph94%30.07 "HgN/A
10:20 PM66 °FPassing clouds.3 mph83%30.04 "HgN/A
9:20 PM66 °FPartly sunny.3 mph83%30.04 "HgN/A
8:20 PM68 °FPartly sunny.3 mph78%30.04 "HgN/A
7:20 PM73 °FScattered clouds.2 mph57%30.04 "HgN/A
6:20 PM72 °FScattered clouds.2 mph69%30.04 "HgN/A
5:20 PM68 °FPartly sunny.3 mph78%30.07 "HgN/A
4:20 PM64 °FThunderstorms. Broken clouds.3 mph88%30.07 "HgN/A
3:58 PM66 °FThunderstorms. Partly sunny.12 mph78%30.09 "Hg3 mi
3:20 PM72 °FScattered showers. Scattered clouds.3 mph57%30.07 "HgN/A
2:20 PM70 °FThundershowers. Broken clouds.8 mph60%30.09 "Hg6 mi
1:20 PM73 °FPartly sunny.5 mph57%30.07 "HgN/A
12:20 PM72 °FBroken clouds.6 mph69%30.09 "HgN/A
11:20 AM68 °FPartly sunny.2 mph73%30.09 "HgN/A
10:20 AM68 °FPartly sunny.3 mph73%30.09 "HgN/A
Weather by CustomWeather, © 2016

See weather overviewHow to use our weather pages